When you browse on this site, cookies collect data to enhance your experience and personalize the content and advertising you see.
Visit our Privacy Policy to learn more. By continuing to use the site, you agree to this use of cookies and data.
  • In Hungary
  • List of Countries
  • For 7 days
  • Water Temperature
  • Satellite Maps
  • Weather Map
  • News
  • Weather Widgets
  • user-avatar
    Login

    Hourly Weather Zelenogorsk

    Today, 20 November, Tuesday

    Time Temperature Precipitation Wind Pressure Humidity
    00:00 -4°C° 0 mm 3 mps 753 mmHg 91%
    01:00 -4°C° 0 mm 3 mps 753 mmHg 91%
    02:00 -4°C° 0 mm 2 mps 752 mmHg 92%
    03:00 -4°C° 0 mm 2 mps 752 mmHg 94%
    04:00 -5°C° 0 mm 2 mps 752 mmHg 94%
    05:00 -5°C° 0 mm 2 mps 752 mmHg 94%
    06:00 -5°C° 0 mm 2 mps 752 mmHg 94%
    07:00 -5°C° 0 mm 2 mps 752 mmHg 93%
    08:00 -5°C° 0 mm 2 mps 752 mmHg 92%
    09:00 -5°C° 0 mm 2 mps 751 mmHg 89%
    10:00 -4°C° 0 mm 2 mps 751 mmHg 86%
    11:00 -4°C° 0 mm 2 mps 751 mmHg 84%
    12:00 -4°C° 0 mm 2 mps 751 mmHg 81%
    13:00 -4°C° 0 mm 2 mps 750 mmHg 81%
    14:00 -4°C° 0 mm 2 mps 750 mmHg 81%
    15:00 -4°C° 0 mm 2 mps 749 mmHg 81%
    16:00 -5°C° 0 mm 3 mps 749 mmHg 82%
    17:00 -5°C° 0 mm 3 mps 748 mmHg 82%
    18:00 -5°C° 0 mm 3 mps 748 mmHg 83%
    19:00 -5°C° 0.1 mm 4 mps 747 mmHg 83%
    20:00 -5°C° 0.1 mm 4 mps 746 mmHg 83%
    21:00 -5°C° 0.1 mm 4 mps 746 mmHg 84%
    22:00 -7°C° 0 mm 4 mps 745 mmHg 84%
    23:00 -7°C° 0 mm 4 mps 744 mmHg 83%

    Tomorrow, 21 November, Wednesday

    Time Temperature Precipitation Wind Pressure Humidity
    00:00 -7°C° 0 mm 4 mps 744 mmHg 83%
    01:00 -7°C° 0 mm 5 mps 743 mmHg 83%
    02:00 -7°C° 0 mm 5 mps 742 mmHg 82%
    03:00 -7°C° 0 mm 5 mps 742 mmHg 82%
    04:00 -6°C° 0.1 mm 5 mps 741 mmHg 83%
    05:00 -6°C° 0.1 mm 5 mps 741 mmHg 83%
    06:00 -6°C° 0.1 mm 5 mps 740 mmHg 84%
    07:00 -6°C° 0.1 mm 5 mps 740 mmHg 84%
    08:00 -5°C° 0.1 mm 5 mps 740 mmHg 85%
    09:00 -5°C° 0.1 mm 5 mps 739 mmHg 85%
    10:00 -5°C° 0.1 mm 6 mps 739 mmHg 79%
    11:00 -4°C° 0.1 mm 6 mps 739 mmHg 74%
    12:00 -4°C° 0.1 mm 7 mps 739 mmHg 69%
    13:00 -5°C° 0 mm 6 mps 740 mmHg 68%
    14:00 -6°C° 0 mm 6 mps 740 mmHg 67%
    15:00 -8°C° 0 mm 6 mps 740 mmHg 67%
    16:00 -8°C° 0 mm 6 mps 740 mmHg 69%
    17:00 -8°C° 0 mm 6 mps 741 mmHg 71%
    18:00 -8°C° 0 mm 5 mps 741 mmHg 73%
    19:00 -8°C° 0 mm 5 mps 741 mmHg 74%
    20:00 -8°C° 0 mm 5 mps 741 mmHg 76%
    21:00 -8°C° 0 mm 5 mps 741 mmHg 78%
    22:00 -10°C° 0 mm 5 mps 741 mmHg 79%
    23:00 -10°C° 0 mm 5 mps 741 mmHg 80%

    Day after tomorrow, 22 November, Thursday

    Time Temperature Precipitation Wind Pressure Humidity
    00:00 -10°C° 0 mm 5 mps 740 mmHg 81%
    01:00 -10°C° 0 mm 5 mps 740 mmHg 83%
    02:00 -9°C° 0 mm 4 mps 740 mmHg 85%
    03:00 -9°C° 0 mm 4 mps 740 mmHg 87%
    04:00 -9°C° 0 mm 4 mps 740 mmHg 89%
    05:00 -8°C° 0 mm 3 mps 739 mmHg 91%
    06:00 -7°C° 0 mm 2 mps 739 mmHg 93%
    07:00 -8°C° 0.1 mm 3 mps 739 mmHg 91%
    08:00 -7°C° 0.1 mm 3 mps 738 mmHg 90%
    09:00 -8°C° 0.1 mm 4 mps 738 mmHg 89%
    10:00 -7°C° 0.4 mm 4 mps 737 mmHg 89%
    11:00 -7°C° 0.4 mm 5 mps 736 mmHg 89%
    12:00 -6°C° 0.4 mm 6 mps 735 mmHg 88%
    13:00 -6°C° 0.5 mm 6 mps 734 mmHg 87%
    14:00 -6°C° 0.5 mm 6 mps 733 mmHg 86%
    15:00 -7°C° 0.5 mm 7 mps 732 mmHg 85%
    16:00 -6°C° 0.2 mm 6 mps 732 mmHg 85%
    17:00 -6°C° 0.2 mm 6 mps 731 mmHg 85%
    18:00 -6°C° 0.2 mm 5 mps 731 mmHg 85%
    19:00 -5°C° 0.3 mm 4 mps 730 mmHg 88%
    20:00 -5°C° 0.3 mm 3 mps 730 mmHg 91%
    21:00 -5°C° 0.3 mm 2 mps 729 mmHg 94%
    22:00 -6°C° 1 mm 3 mps 729 mmHg 94%
    23:00 -7°C° 1 mm 4 mps 728 mmHg 93%

    23 November, Friday

    Time Temperature Precipitation Wind Pressure Humidity
    00:00 -7°C° 1 mm 4 mps 728 mmHg 92%
    01:00 -8°C° 0.6 mm 5 mps 729 mmHg 91%
    02:00 -9°C° 0.6 mm 6 mps 729 mmHg 89%
    03:00 -11°C° 0.6 mm 7 mps 730 mmHg 87%
    04:00 -11°C° 0.2 mm 7 mps 731 mmHg 85%
    05:00 -11°C° 0.2 mm 7 mps 732 mmHg 83%
    06:00 -12°C° 0.2 mm 7 mps 733 mmHg 81%
    07:00 -12°C° 0 mm 7 mps 735 mmHg 79%
    08:00 -13°C° 0 mm 7 mps 736 mmHg 78%
    09:00 -13°C° 0 mm 7 mps 738 mmHg 76%
    10:00 -13°C° 0 mm 7 mps 739 mmHg 77%
    11:00 -12°C° 0 mm 6 mps 740 mmHg 78%
    12:00 -11°C° 0 mm 6 mps 741 mmHg 80%
    13:00 -11°C° 0 mm 6 mps 741 mmHg 80%
    14:00 -11°C° 0 mm 6 mps 742 mmHg 80%
    15:00 -12°C° 0 mm 5 mps 743 mmHg 80%
    16:00 -12°C° 0 mm 5 mps 743 mmHg 82%
    17:00 -13°C° 0 mm 5 mps 744 mmHg 84%
    18:00 -14°C° 0 mm 4 mps 744 mmHg 86%
    19:00 -14°C° 0 mm 4 mps 744 mmHg 88%
    20:00 -14°C° 0 mm 4 mps 745 mmHg 89%
    21:00 -14°C° 0 mm 4 mps 745 mmHg 91%
    22:00 -14°C° 0 mm 4 mps 745 mmHg 92%
    23:00 -12°C° 0 mm 4 mps 745 mmHg 92%

    24 November, Saturday

    Time Temperature Precipitation Wind Pressure Humidity
    00:00 -12°C° 0 mm 3 mps 745 mmHg 92%
    01:00 -11°C° 0 mm 4 mps 745 mmHg 91%
    02:00 -11°C° 0 mm 4 mps 745 mmHg 90%
    03:00 -10°C° 0 mm 4 mps 745 mmHg 89%
    04:00 -10°C° 0 mm 4 mps 744 mmHg 89%
    05:00 -12°C° 0 mm 5 mps 744 mmHg 90%
    06:00 -12°C° 0 mm 5 mps 744 mmHg 90%
    07:00 -11°C° 0 mm 5 mps 743 mmHg 89%
    08:00 -10°C° 0 mm 5 mps 743 mmHg 89%
    09:00 -10°C° 0 mm 6 mps 743 mmHg 88%
    10:00 -10°C° 0 mm 6 mps 742 mmHg 87%
    11:00 -9°C° 0 mm 6 mps 742 mmHg 86%
    12:00 -9°C° 0 mm 6 mps 742 mmHg 85%
    13:00 -9°C° 0.1 mm 6 mps 741 mmHg 85%
    14:00 -9°C° 0.1 mm 6 mps 741 mmHg 85%
    15:00 -9°C° 0.1 mm 6 mps 741 mmHg 84%
    16:00 -8°C° 0 mm 6 mps 741 mmHg 84%
    17:00 -8°C° 0 mm 6 mps 740 mmHg 85%
    18:00 -8°C° 0 mm 6 mps 740 mmHg 85%
    19:00 -8°C° 0 mm 6 mps 739 mmHg 85%
    20:00 -8°C° 0 mm 6 mps 739 mmHg 85%
    21:00 -6°C° 0 mm 6 mps 739 mmHg 84%
    22:00 -6°C° 0 mm 6 mps 739 mmHg 84%
    23:00 -6°C° 0 mm 6 mps 738 mmHg 84%

    25 November, Sunday

    Time Temperature Precipitation Wind Pressure Humidity
    00:00 -6°C° 0 mm 6 mps 738 mmHg 83%
    01:00 -6°C° 0.1 mm 6 mps 738 mmHg 84%
    02:00 -6°C° 0.1 mm 6 mps 738 mmHg 84%
    03:00 -6°C° 0.1 mm 6 mps 738 mmHg 85%
    04:00 -6°C° 0 mm 6 mps 739 mmHg 85%
    05:00 -6°C° 0 mm 6 mps 739 mmHg 85%
    06:00 -7°C° 0 mm 5 mps 739 mmHg 86%
    07:00 -7°C° 0 mm 5 mps 740 mmHg 87%
    08:00 -7°C° 0 mm 5 mps 741 mmHg 88%
    09:00 -7°C° 0 mm 5 mps 741 mmHg 89%
    10:00 -7°C° 0 mm 4 mps 742 mmHg 88%
    11:00 -5°C° 0 mm 4 mps 742 mmHg 88%
    12:00 -5°C° 0 mm 4 mps 742 mmHg 87%
    13:00 -5°C° 0 mm 4 mps 742 mmHg 88%
    14:00 -6°C° 0 mm 3 mps 743 mmHg 88%
    15:00 -6°C° 0 mm 3 mps 743 mmHg 89%
    16:00 -7°C° 0 mm 3 mps 743 mmHg 91%
    17:00 -7°C° 0 mm 3 mps 743 mmHg 93%
    18:00 -7°C° 0 mm 2 mps 743 mmHg 94%
    19:00 -8°C° 0 mm 2 mps 744 mmHg 95%
    20:00 -8°C° 0 mm 2 mps 744 mmHg 96%
    21:00 -9°C° 0 mm 2 mps 744 mmHg 97%
    22:00 -9°C° 0 mm 2 mps 744 mmHg 97%
    23:00 -8°C° 0 mm 2 mps 744 mmHg 97%
    Show more